This demonstration page uses our WeatherBlox Daily Observations layout. Learn more.

Left ArrowRight Arrow

Hourly Observations for May 12, 2017

Temp ( °F °C ) Dew Point ( °F °C ) Humidity (%) Winds ( mph kmh ) Pressure ( in mb ) Visibility ( mi km ) Precip ( " mm )
12:56 am 00:56 Clear 57 13.9 38 3.1 48 48 NNE 6 9 30.03 1017 10 16 0.00 0.00
1:56 am 01:56 Clear 54 12.2 39 3.7 56 56 Calm 30.05 1018 10 16 0.00 0.00
2:56 am 02:56 Clear 45 7.4 40 4.7 83 83 Calm 30.06 1018 10 16 0.00 0.00
3:56 am 03:56 Clear 44 6.5 41 4.8 89 89 Calm 30.05 1018 10 16 0.00 0.00
4:56 am 04:56 Clear 43 6.1 40 4.7 91 91 WNW 3 6 30.06 1018 10 16 0.00 0.00
5:56 am 05:56 Clear 44 6.8 41 4.8 87 87 Calm 30.06 1018 10 16 0.00 0.00
6:56 am 06:56 Sunny 46 7.9 42 5.4 84 84 NW 3 6 30.08 1019 10 16 0.00 0.00
7:56 am 07:56 Sunny 53 11.4 43 5.9 69 69 Calm 30.08 1019 10 16 0.00 0.00
8:56 am 08:56 Sunny 59 14.9 43 6.2 56 56 NE 6 9 30.09 1019 10 16 0.00 0.00
9:56 am 09:56 Sunny 63 17 44 6.5 50 50 E 6 9 30.08 1019 10 16 0.00 0.00
10:56 am 10:56 Sunny 66 18.9 41 5 40 40 NE 12 19 30.07 1018 10 16 0.00 0.00
11:56 am 11:56 Sunny 68 20 41 4.9 37 37 NE 10 17 30.07 1018 10 16 0.00 0.00
12:56 pm 12:56 Sunny 70 21.2 43 6.3 38 38 NE 9 15 30.06 1018 10 16 0.00 0.00
1:56 pm 13:56 Sunny 71 21.8 44 6.5 37 37 N 12 19 30.04 1017 10 16 0.00 0.00
2:56 pm 14:56 Sunny 74 23.1 43 5.9 33 33 NE 12 19 30.03 1017 10 16 0.00 0.00
3:56 pm 15:56 Sunny 74 23.5 43 6.3 33 33 NE 9 15 30.02 1017 10 16 0.00 0.00
4:56 pm 16:56 Sunny 75 24 43 6.3 32 32 NNE 6 9 30.00 1016 10 16 0.00 0.00
5:56 pm 17:56 Sunny 75 23.8 42 5.6 31 31 NE 5 7 30.00 1016 10 16 0.00 0.00
6:56 pm 18:56 Sunny 75 23.8 44 6.5 33 33 NE 6 9 29.98 1015 10 16 0.00 0.00
7:56 pm 19:56 Sunny 70 21.2 48 8.8 45 45 Calm 29.98 1015 10 16 0.00 0.00
8:56 pm 20:56 Clear 58 14.5 51 10.3 76 76 Calm 29.98 1015 10 16 0.00 0.00
9:56 pm 21:56 Clear 55 12.6 48 8.7 77 77 Calm 29.99 1016 10 16 0.00 0.00
10:56 pm 22:56 Clear 52 10.9 49 9.5 91 91 Calm 29.99 1016 10 16 0.00 0.00
11:56 pm 23:56 Clear 51 10.4 48 8.7 89 89 Calm 29.98 1015 10 16 0.00 0.00

Powered by AerisWeather